AIQ571 ZHHH-VTBD

Flight info

Callsign AIQ571
Flight time 3h 24m
Altitude 34100
Route GUGAM1E GUGAM A581 LIN W45 CD/K0843S1100 W45 NUPTI R343 WUY R474 TEBAK/K0837F360 R474 LAVOS/N0451F360 R474 CMP W21 NOBER NAKON3A
Aircraft A320/M-SDE3FGHIRWY/LB1

Departure

Time 2026-05-08 13:51
Airport Wuhan Tianhe International Airport (ZHHH)

Arrival

Time 2026-05-08 17:16
Airport Don Mueang International Airport (VTBD)
Time Latitude Longitude Altitude Speed Heading
2026-05-08 13:19 30.77534 114.21614 109 ft 0 kts 220°
2026-05-08 13:41 30.77533 114.21614 108 ft 0 kts 220°
2026-05-08 13:41 30.77533 114.21613 108 ft 0 kts 220°
2026-05-08 13:41 30.77535 114.21615 108 ft 2 kts 220°
2026-05-08 13:42 30.77548 114.21628 107 ft 2 kts 220°
2026-05-08 13:42 30.77561 114.21641 107 ft 2 kts 220°
2026-05-08 13:42 30.77574 114.21654 106 ft 2 kts 220°
2026-05-08 13:42 30.77587 114.21668 107 ft 2 kts 193°
2026-05-08 13:43 30.77603 114.21665 107 ft 2 kts 129°
2026-05-08 13:43 30.77604 114.21664 108 ft 0 kts 129°
2026-05-08 13:44 30.77594 114.21679 107 ft 6 kts 126°
2026-05-08 13:44 30.77562 114.21739 107 ft 12 kts 127°
2026-05-08 13:44 30.77494 114.21829 108 ft 17 kts 131°
2026-05-08 13:45 30.77412 114.21937 107 ft 18 kts 131°
2026-05-08 13:45 30.77332 114.22044 107 ft 18 kts 131°
2026-05-08 13:45 30.77250 114.22150 106 ft 17 kts 131°
2026-05-08 13:45 30.77177 114.22228 107 ft 11 kts 165°
2026-05-08 13:46 30.77116 114.22195 107 ft 10 kts 221°
2026-05-08 13:46 30.77050 114.22126 108 ft 16 kts 221°
2026-05-08 13:46 30.76960 114.22035 107 ft 18 kts 221°
2026-05-08 13:46 30.76869 114.21942 108 ft 17 kts 221°
2026-05-08 13:47 30.76780 114.21851 108 ft 17 kts 221°
2026-05-08 13:47 30.76692 114.21762 108 ft 17 kts 221°
2026-05-08 13:47 30.76607 114.21674 108 ft 16 kts 220°
2026-05-08 13:47 30.76522 114.21589 107 ft 16 kts 221°
2026-05-08 13:48 30.76443 114.21508 108 ft 15 kts 221°
2026-05-08 13:48 30.76368 114.21431 108 ft 14 kts 221°
2026-05-08 13:48 30.76301 114.21361 108 ft 12 kts 221°
2026-05-08 13:48 30.76241 114.21299 108 ft 12 kts 220°
2026-05-08 13:49 30.76153 114.21212 107 ft 18 kts 221°
2026-05-08 13:49 30.76065 114.21123 108 ft 14 kts 217°
2026-05-08 13:49 30.75992 114.21147 108 ft 11 kts 132°
2026-05-08 13:49 30.75948 114.21205 109 ft 8 kts 131°
2026-05-08 13:50 30.75930 114.21247 109 ft 4 kts 66°
2026-05-08 13:50 30.75938 114.21254 109 ft 0 kts 43°
2026-05-08 13:50 30.76077 114.21396 109 ft 63 kts 41°
2026-05-08 13:50 30.76570 114.21900 109 ft 123 kts 41°
2026-05-08 13:51 30.77332 114.22680 112 ft 168 kts 41°
2026-05-08 13:51 30.78215 114.23593 662 ft 169 kts 41°
2026-05-08 13:51 30.79100 114.24499 1301 ft 170 kts 41°
2026-05-08 13:51 30.80021 114.25443 1673 ft 186 kts 41°
2026-05-08 13:52 30.81048 114.26493 1902 ft 207 kts 41°
2026-05-08 13:52 30.82180 114.27651 2180 ft 227 kts 41°
2026-05-08 13:52 30.83411 114.28911 2708 ft 240 kts 42°
2026-05-08 13:52 30.84240 114.29763 3234 ft 241 kts 42°
2026-05-08 13:53 30.85505 114.31064 4031 ft 244 kts 42°
2026-05-08 13:53 30.86783 114.32377 4832 ft 246 kts 42°
2026-05-08 13:53 30.88077 114.33704 5599 ft 250 kts 41°
2026-05-08 13:53 30.89388 114.35052 6363 ft 253 kts 41°
2026-05-08 13:54 30.90716 114.36411 7089 ft 256 kts 39°
2026-05-08 13:54 30.92294 114.37365 7786 ft 260 kts 11°
2026-05-08 13:54 30.94087 114.37264 8489 ft 263 kts 340°
2026-05-08 13:54 30.95620 114.36110 9199 ft 266 kts 313°
2026-05-08 13:55 30.96863 114.34499 9952 ft 269 kts 311°
2026-05-08 13:55 30.98106 114.32855 10640 ft 271 kts 311°
2026-05-08 13:55 31.00609 114.29540 12062 ft 274 kts 311°
2026-05-08 13:56 31.01870 114.27874 12757 ft 275 kts 311°
2026-05-08 13:56 31.03141 114.26198 13461 ft 276 kts 311°
2026-05-08 13:56 31.04406 114.24489 14044 ft 283 kts 306°
2026-05-08 13:56 31.05147 114.22353 14519 ft 291 kts 276°
2026-05-08 13:57 31.04921 114.20001 14943 ft 302 kts 249°
2026-05-08 13:57 31.03693 114.17918 15071 ft 326 kts 226°
2026-05-08 13:57 31.01967 114.16078 15191 ft 346 kts 223°
2026-05-08 13:57 31.00100 114.14198 15392 ft 361 kts 223°
2026-05-08 13:58 30.98166 114.12291 15895 ft 366 kts 223°
2026-05-08 13:58 30.96218 114.10364 16467 ft 368 kts 223°
2026-05-08 13:58 30.94268 114.08417 17062 ft 370 kts 223°
2026-05-08 13:58 30.92317 114.06448 17668 ft 372 kts 224°
2026-05-08 13:59 30.90371 114.04464 18268 ft 373 kts 224°
2026-05-08 13:59 30.88422 114.02464 18797 ft 374 kts 225°
2026-05-08 13:59 30.86468 114.00460 19319 ft 375 kts 225°
2026-05-08 13:59 30.84511 113.98461 19848 ft 375 kts 225°
2026-05-08 14:00 30.82551 113.96460 20365 ft 375 kts 225°
2026-05-08 14:00 30.80590 113.94467 20895 ft 374 kts 225°
2026-05-08 14:00 30.78624 113.92474 21419 ft 375 kts 225°
2026-05-08 14:00 30.76658 113.90482 21920 ft 375 kts 225°
2026-05-08 14:01 30.74689 113.88491 22413 ft 376 kts 225°
2026-05-08 14:01 30.72715 113.86492 22877 ft 377 kts 225°
2026-05-08 14:01 30.70740 113.84488 23361 ft 377 kts 225°
2026-05-08 14:01 30.68823 113.82417 23802 ft 375 kts 232°
2026-05-08 14:02 30.67129 113.80118 24164 ft 375 kts 233°
2026-05-08 14:02 30.65437 113.77802 24517 ft 377 kts 233°
2026-05-08 14:02 30.63740 113.75482 24858 ft 378 kts 234°
2026-05-08 14:02 30.62030 113.73149 25185 ft 380 kts 233°
2026-05-08 14:03 30.60310 113.70805 25482 ft 383 kts 233°
2026-05-08 14:03 30.58578 113.68453 25811 ft 384 kts 233°
2026-05-08 14:03 30.56838 113.66092 26139 ft 386 kts 234°
2026-05-08 14:03 30.55090 113.63718 26465 ft 387 kts 234°
2026-05-08 14:04 30.53336 113.61334 26797 ft 389 kts 234°
2026-05-08 14:04 30.51577 113.58940 27110 ft 391 kts 234°
2026-05-08 14:04 30.49811 113.56541 27429 ft 392 kts 234°
2026-05-08 14:04 30.48031 113.54131 27743 ft 394 kts 234°
2026-05-08 14:05 30.46244 113.51717 28054 ft 396 kts 234°
2026-05-08 14:05 30.44449 113.49288 28373 ft 397 kts 234°
2026-05-08 14:05 30.42648 113.46850 28683 ft 399 kts 234°
2026-05-08 14:05 30.40841 113.44405 28928 ft 401 kts 234°
2026-05-08 14:06 30.39021 113.41943 29178 ft 404 kts 234°
2026-05-08 14:06 30.37188 113.39467 29452 ft 406 kts 234°
2026-05-08 14:06 30.35345 113.36986 29724 ft 407 kts 234°
2026-05-08 14:06 30.33493 113.34498 29989 ft 409 kts 234°
2026-05-08 14:07 30.31634 113.31999 30244 ft 410 kts 234°
2026-05-08 14:07 30.29771 113.29491 30471 ft 412 kts 234°
2026-05-08 14:07 30.27903 113.26976 30705 ft 412 kts 234°
2026-05-08 14:07 30.26034 113.24464 31007 ft 411 kts 234°
2026-05-08 14:08 30.24168 113.21962 31330 ft 410 kts 235°
2026-05-08 14:08 30.22335 113.19501 31650 ft 408 kts 236°
2026-05-08 14:08 30.20700 113.16864 31940 ft 401 kts 243°
2026-05-08 14:08 30.19215 113.14142 32278 ft 399 kts 243°
2026-05-08 14:09 30.17734 113.11444 32637 ft 397 kts 243°
2026-05-08 14:09 30.16259 113.08765 32994 ft 394 kts 243°
2026-05-08 14:09 30.14787 113.06096 33339 ft 392 kts 244°
2026-05-08 14:09 30.13323 113.03445 33685 ft 390 kts 244°
2026-05-08 14:10 30.11869 113.00812 34027 ft 388 kts 244°
2026-05-08 14:10 30.08986 112.95607 34124 ft 380 kts 244°
2026-05-08 14:11 30.06148 112.90487 34126 ft 378 kts 244°
2026-05-08 14:11 30.03322 112.85370 34124 ft 378 kts 244°
2026-05-08 14:12 30.00493 112.80263 34105 ft 377 kts 244°
2026-05-08 14:12 29.97668 112.75172 34121 ft 377 kts 244°
2026-05-08 14:13 29.94844 112.70086 34126 ft 377 kts 244°
2026-05-08 14:13 29.92016 112.65003 34127 ft 377 kts 244°
2026-05-08 14:14 29.89186 112.59920 34132 ft 377 kts 244°
2026-05-08 14:14 29.86347 112.54841 34132 ft 377 kts 244°
2026-05-08 14:15 29.83510 112.49761 34141 ft 377 kts 244°
2026-05-08 14:15 29.80671 112.44681 34103 ft 377 kts 244°
2026-05-08 14:16 29.77837 112.39612 34120 ft 376 kts 244°
2026-05-08 14:16 29.74998 112.34550 34138 ft 376 kts 244°
2026-05-08 14:17 29.72161 112.29496 34141 ft 376 kts 244°
2026-05-08 14:17 29.69308 112.24455 34140 ft 376 kts 244°
2026-05-08 14:18 29.66454 112.19423 34140 ft 376 kts 244°
2026-05-08 14:18 29.63603 112.14393 34138 ft 375 kts 244°
2026-05-08 14:19 29.60751 112.09366 34098 ft 376 kts 245°
2026-05-08 14:19 29.57901 112.04342 34121 ft 375 kts 244°
2026-05-08 14:20 29.55052 111.99329 34132 ft 375 kts 244°
2026-05-08 14:20 29.52196 111.94327 34135 ft 374 kts 244°
2026-05-08 14:21 29.49347 111.89327 34138 ft 374 kts 244°
2026-05-08 14:21 29.46504 111.84333 34137 ft 374 kts 244°
2026-05-08 14:22 29.43653 111.79347 34143 ft 373 kts 244°
2026-05-08 14:22 29.40797 111.74370 34142 ft 374 kts 244°
2026-05-08 14:23 29.37933 111.69442 34138 ft 377 kts 240°
2026-05-08 14:23 29.36081 111.67245 34137 ft 392 kts 228°
2026-05-08 14:23 29.33709 111.65583 34135 ft 412 kts 214°
2026-05-08 14:23 29.30846 111.64638 34130 ft 435 kts 199°
2026-05-08 14:24 29.27820 111.64397 34112 ft 444 kts 195°
2026-05-08 14:24 29.21632 111.64080 34115 ft 446 kts 194°
2026-05-08 14:25 29.15430 111.63771 34106 ft 446 kts 195°
2026-05-08 14:25 29.09221 111.63445 34123 ft 447 kts 195°
2026-05-08 14:26 29.03007 111.63105 34134 ft 447 kts 195°
2026-05-08 14:26 28.96794 111.62771 34135 ft 447 kts 195°
2026-05-08 14:27 28.90580 111.62452 34132 ft 447 kts 195°
2026-05-08 14:27 28.84368 111.62131 34106 ft 446 kts 195°
2026-05-08 14:28 28.78216 111.61575 34116 ft 442 kts 198°
2026-05-08 14:28 28.72117 111.60834 34125 ft 441 kts 199°
2026-05-08 14:29 28.66011 111.60102 34134 ft 441 kts 198°
2026-05-08 14:29 28.59893 111.59429 34100 ft 442 kts 197°
2026-05-08 14:30 28.53761 111.58785 34112 ft 443 kts 197°
2026-05-08 14:30 28.47628 111.58130 34127 ft 443 kts 197°
2026-05-08 14:31 28.41488 111.57467 34127 ft 443 kts 197°
2026-05-08 14:31 28.35351 111.56812 34144 ft 443 kts 197°
2026-05-08 14:32 28.26129 111.55838 34135 ft 444 kts 197°
2026-05-08 14:32 28.19977 111.55191 34143 ft 444 kts 197°
2026-05-08 14:33 28.13833 111.54541 34144 ft 444 kts 197°
2026-05-08 14:33 28.07681 111.53895 34147 ft 444 kts 197°
2026-05-08 14:34 28.01534 111.53254 34143 ft 444 kts 197°
2026-05-08 14:34 27.95388 111.52608 34146 ft 443 kts 197°
2026-05-08 14:35 27.89247 111.51953 34148 ft 443 kts 197°
2026-05-08 14:35 27.83150 111.51308 34148 ft 443 kts 197°
2026-05-08 14:36 27.77010 111.50667 34115 ft 443 kts 196°
2026-05-08 14:36 27.70864 111.50033 34121 ft 443 kts 196°
2026-05-08 14:37 27.64702 111.49386 34262 ft 448 kts 196°
2026-05-08 14:37 27.61596 111.49058 34449 ft 449 kts 196°
2026-05-08 14:37 27.58488 111.48732 34673 ft 449 kts 196°
2026-05-08 14:38 27.56428 111.48518 34795 ft 449 kts 196°
2026-05-08 14:38 27.52272 111.48088 35085 ft 448 kts 196°
2026-05-08 14:38 27.49169 111.47767 35300 ft 448 kts 195°
2026-05-08 14:38 27.47073 111.47548 35419 ft 447 kts 196°
2026-05-08 14:39 27.43976 111.47226 35594 ft 448 kts 195°
2026-05-08 14:39 27.40873 111.46902 35791 ft 447 kts 195°
2026-05-08 14:39 27.37777 111.46581 35994 ft 447 kts 195°
2026-05-08 14:39 27.34685 111.46262 36198 ft 446 kts 195°
2026-05-08 14:40 27.28499 111.45627 36302 ft 446 kts 195°
2026-05-08 14:40 27.22362 111.44996 36294 ft 446 kts 195°
2026-05-08 14:41 27.16169 111.44345 36299 ft 447 kts 195°
2026-05-08 14:41 27.09972 111.43697 36298 ft 447 kts 195°
2026-05-08 14:42 27.03768 111.43060 36296 ft 448 kts 195°
2026-05-08 14:42 26.97551 111.42425 36296 ft 448 kts 195°
2026-05-08 14:43 26.91570 111.41068 36287 ft 429 kts 210°
2026-05-08 14:43 26.86449 111.37975 36297 ft 414 kts 222°
2026-05-08 14:44 26.81643 111.34424 36299 ft 414 kts 221°
2026-05-08 14:44 26.76832 111.30885 36296 ft 414 kts 221°
2026-05-08 14:45 26.72002 111.27346 36301 ft 415 kts 221°
2026-05-08 14:45 26.67172 111.23813 36303 ft 415 kts 221°
2026-05-08 14:46 26.62337 111.20280 36311 ft 415 kts 221°
2026-05-08 14:46 26.57507 111.16758 36302 ft 415 kts 221°
2026-05-08 14:47 26.52587 111.13336 36308 ft 417 kts 220°
2026-05-08 14:47 26.47611 111.09999 36312 ft 417 kts 220°
2026-05-08 14:48 26.42646 111.06654 36287 ft 417 kts 220°
2026-05-08 14:48 26.37698 111.03283 36296 ft 417 kts 220°
2026-05-08 14:49 26.32744 110.99905 36294 ft 418 kts 220°
2026-05-08 14:49 26.27774 110.96525 36294 ft 418 kts 220°
2026-05-08 14:50 26.22815 110.93135 36304 ft 418 kts 220°
2026-05-08 14:50 26.17872 110.89764 36263 ft 418 kts 219°
2026-05-08 14:51 26.12896 110.86392 36274 ft 419 kts 219°
2026-05-08 14:51 26.07915 110.83019 36283 ft 419 kts 219°
2026-05-08 14:52 26.00452 110.77971 36279 ft 418 kts 219°
2026-05-08 14:53 25.95487 110.74595 36284 ft 419 kts 219°
2026-05-08 14:53 25.90512 110.71216 36260 ft 419 kts 219°
2026-05-08 14:54 25.85526 110.67843 36270 ft 420 kts 219°
2026-05-08 14:54 25.80534 110.64479 36265 ft 420 kts 219°
2026-05-08 14:55 25.75532 110.61117 36271 ft 420 kts 219°
2026-05-08 14:55 25.70560 110.57714 36269 ft 420 kts 219°
2026-05-08 14:56 25.65623 110.54265 36245 ft 419 kts 220°
2026-05-08 14:56 25.60688 110.50822 36241 ft 420 kts 219°
2026-05-08 14:57 25.55768 110.47405 36250 ft 420 kts 219°
2026-05-08 14:57 25.50859 110.43847 36251 ft 418 kts 221°
2026-05-08 14:58 25.46042 110.40236 36252 ft 418 kts 221°
2026-05-08 14:58 25.41220 110.36647 36252 ft 418 kts 221°
2026-05-08 14:59 25.36394 110.33055 36225 ft 418 kts 221°
2026-05-08 14:59 25.29146 110.27657 36223 ft 419 kts 221°
2026-05-08 15:00 25.24301 110.24060 36224 ft 420 kts 221°
2026-05-08 15:00 25.19459 110.20461 36231 ft 420 kts 221°
2026-05-08 15:01 25.14617 110.16849 36235 ft 420 kts 221°
2026-05-08 15:01 25.09784 110.13234 36219 ft 420 kts 221°
2026-05-08 15:02 25.04944 110.09614 36220 ft 421 kts 221°
2026-05-08 15:02 25.00088 110.06000 36228 ft 421 kts 221°
2026-05-08 15:03 24.95230 110.02395 36224 ft 421 kts 221°
2026-05-08 15:03 24.90371 109.98794 36226 ft 421 kts 221°
2026-05-08 15:04 24.85512 109.95188 36196 ft 421 kts 221°
2026-05-08 15:04 24.80655 109.91575 36197 ft 421 kts 221°
2026-05-08 15:05 24.75827 109.87993 36206 ft 421 kts 221°
2026-05-08 15:05 24.70964 109.84399 36204 ft 421 kts 220°
2026-05-08 15:06 24.66106 109.80809 36193 ft 421 kts 221°
2026-05-08 15:06 24.61256 109.77204 36192 ft 420 kts 220°
2026-05-08 15:07 24.56412 109.73595 36167 ft 421 kts 220°
2026-05-08 15:07 24.51562 109.69991 36166 ft 421 kts 220°
2026-05-08 15:08 24.47499 109.66966 36179 ft 421 kts 220°
2026-05-08 15:08 24.41860 109.62777 36170 ft 421 kts 220°
2026-05-08 15:09 24.37001 109.59181 36175 ft 421 kts 220°
2026-05-08 15:09 24.32127 109.55599 36155 ft 422 kts 220°
2026-05-08 15:10 24.27252 109.52006 36165 ft 422 kts 220°
2026-05-08 15:10 24.22376 109.48405 36167 ft 423 kts 220°
2026-05-08 15:11 24.17497 109.44806 36171 ft 423 kts 220°
2026-05-08 15:11 24.12611 109.41218 36176 ft 423 kts 220°
2026-05-08 15:12 24.07715 109.37632 36183 ft 423 kts 220°
2026-05-08 15:12 24.02824 109.34043 36186 ft 424 kts 220°
2026-05-08 15:13 23.97929 109.30456 36182 ft 423 kts 220°
2026-05-08 15:13 23.93034 109.26868 36183 ft 423 kts 220°
2026-05-08 15:14 23.88145 109.23286 36186 ft 423 kts 220°
2026-05-08 15:14 23.83282 109.19731 36187 ft 424 kts 220°
2026-05-08 15:15 23.78382 109.16160 36167 ft 424 kts 219°
2026-05-08 15:15 23.73550 109.12489 36168 ft 422 kts 223°
2026-05-08 15:16 23.68958 109.08523 36173 ft 420 kts 224°
2026-05-08 15:16 23.64414 109.04501 36171 ft 421 kts 224°
2026-05-08 15:17 23.59819 109.00531 36176 ft 422 kts 223°
2026-05-08 15:17 23.55190 108.96606 36179 ft 422 kts 223°
2026-05-08 15:18 23.50556 108.92677 36166 ft 422 kts 223°
2026-05-08 15:18 23.45925 108.88740 36165 ft 423 kts 223°
2026-05-08 15:19 23.41292 108.84803 36172 ft 423 kts 223°
2026-05-08 15:19 23.36649 108.80865 36175 ft 423 kts 223°
2026-05-08 15:20 23.32002 108.76925 36181 ft 424 kts 223°
2026-05-08 15:20 23.27351 108.72982 36183 ft 424 kts 223°
2026-05-08 15:21 23.22695 108.69043 36164 ft 424 kts 222°
2026-05-08 15:21 23.18042 108.65100 36172 ft 424 kts 222°
2026-05-08 15:22 23.13392 108.61151 36173 ft 424 kts 222°
2026-05-08 15:22 23.08731 108.57207 36168 ft 425 kts 222°
2026-05-08 15:23 23.04857 108.53935 36168 ft 424 kts 222°
2026-05-08 15:23 23.00200 108.49999 36165 ft 424 kts 222°
2026-05-08 15:24 22.95540 108.46067 36152 ft 424 kts 222°
2026-05-08 15:24 22.90876 108.42134 36148 ft 425 kts 222°
2026-05-08 15:25 22.86211 108.38196 36153 ft 425 kts 222°
2026-05-08 15:25 22.81539 108.34265 36162 ft 425 kts 222°
2026-05-08 15:26 22.76860 108.30334 36171 ft 425 kts 222°
2026-05-08 15:26 22.72186 108.26405 36179 ft 425 kts 222°
2026-05-08 15:27 22.67513 108.22480 36170 ft 425 kts 222°
2026-05-08 15:27 22.62868 108.18564 36167 ft 425 kts 225°
2026-05-08 15:28 22.59157 108.13677 36167 ft 415 kts 245°
2026-05-08 15:28 22.57342 108.07830 36167 ft 410 kts 261°
2026-05-08 15:29 22.56286 108.01763 36159 ft 411 kts 261°
2026-05-08 15:29 22.55212 107.95695 36153 ft 411 kts 261°
2026-05-08 15:30 22.54132 107.89626 36148 ft 411 kts 261°
2026-05-08 15:30 22.53046 107.83552 36142 ft 411 kts 261°
2026-05-08 15:31 22.51966 107.77514 36142 ft 412 kts 261°
2026-05-08 15:31 22.50888 107.71424 36147 ft 412 kts 261°
2026-05-08 15:32 22.49807 107.65331 36151 ft 413 kts 260°
2026-05-08 15:32 22.48717 107.59243 36153 ft 413 kts 260°
2026-05-08 15:33 22.47623 107.53150 36152 ft 413 kts 260°
2026-05-08 15:33 22.46524 107.47054 36156 ft 413 kts 260°
2026-05-08 15:34 22.45433 107.40960 36144 ft 413 kts 261°
2026-05-08 15:34 22.44338 107.34855 36144 ft 414 kts 260°
2026-05-08 15:35 22.43227 107.28750 36143 ft 414 kts 260°
2026-05-08 15:35 22.42117 107.22642 36143 ft 414 kts 260°
2026-05-08 15:36 22.41022 107.16530 36142 ft 414 kts 261°
2026-05-08 15:36 22.39934 107.10420 36141 ft 414 kts 261°
2026-05-08 15:37 22.38841 107.04317 36135 ft 414 kts 260°
2026-05-08 15:37 22.37740 106.98211 36135 ft 414 kts 260°
2026-05-08 15:38 22.36635 106.92112 36133 ft 414 kts 260°
2026-05-08 15:38 22.34570 106.86319 36138 ft 418 kts 240°
2026-05-08 15:39 22.30719 106.81558 36128 ft 424 kts 228°
2026-05-08 15:39 22.26510 106.77089 36128 ft 425 kts 228°
2026-05-08 15:40 22.22304 106.72603 36123 ft 425 kts 228°
2026-05-08 15:40 22.18086 106.68114 36120 ft 426 kts 227°
2026-05-08 15:41 22.13500 106.64006 36121 ft 429 kts 223°
2026-05-08 15:41 22.08840 106.59959 36117 ft 430 kts 223°
2026-05-08 15:42 22.04181 106.55901 36122 ft 431 kts 223°
2026-05-08 15:42 21.99524 106.51838 36122 ft 431 kts 223°
2026-05-08 15:43 21.94857 106.47776 36136 ft 431 kts 223°
2026-05-08 15:43 21.90241 106.43709 36114 ft 432 kts 223°
2026-05-08 15:44 21.85596 106.39606 36109 ft 433 kts 223°
2026-05-08 15:44 21.83264 106.37550 35979 ft 433 kts 223°
2026-05-08 15:44 21.80930 106.35498 36025 ft 433 kts 223°
2026-05-08 15:45 21.76255 106.31405 36014 ft 433 kts 223°
2026-05-08 15:45 21.71575 106.27324 36014 ft 433 kts 223°
2026-05-08 15:46 21.66899 106.23233 36014 ft 433 kts 223°
2026-05-08 15:46 21.62228 106.19134 36002 ft 434 kts 223°
2026-05-08 15:47 21.57548 106.15029 36002 ft 435 kts 223°
2026-05-08 15:47 21.52846 106.10926 35993 ft 435 kts 223°
2026-05-08 15:48 21.45800 106.04784 35994 ft 435 kts 222°
2026-05-08 15:49 21.41098 106.00694 35991 ft 435 kts 222°
2026-05-08 15:49 21.36397 105.96604 35991 ft 435 kts 222°
2026-05-08 15:50 21.31698 105.92517 36022 ft 435 kts 222°
2026-05-08 15:50 21.26994 105.88434 36029 ft 435 kts 222°
2026-05-08 15:51 21.22550 105.84084 36029 ft 430 kts 234°
2026-05-08 15:51 21.19646 105.78575 36030 ft 424 kts 252°
2026-05-08 15:52 21.17659 105.72622 36030 ft 424 kts 252°
2026-05-08 15:52 21.15655 105.66671 36022 ft 424 kts 252°
2026-05-08 15:53 21.13653 105.60729 36017 ft 424 kts 252°
2026-05-08 15:53 21.11650 105.54791 36011 ft 424 kts 252°
2026-05-08 15:54 21.09653 105.48857 36005 ft 424 kts 252°
2026-05-08 15:54 21.07647 105.42920 36003 ft 425 kts 251°
2026-05-08 15:55 21.05637 105.36971 36009 ft 425 kts 251°
2026-05-08 15:55 21.02610 105.28042 36011 ft 425 kts 251°
2026-05-08 15:56 21.00587 105.22103 36011 ft 424 kts 251°
2026-05-08 15:56 20.98575 105.16171 36021 ft 424 kts 251°
2026-05-08 15:57 20.96560 105.10240 36027 ft 424 kts 251°
2026-05-08 15:57 20.94540 105.04311 36036 ft 424 kts 251°
2026-05-08 15:58 20.92517 104.98387 36035 ft 424 kts 251°
2026-05-08 15:58 20.90505 104.92457 36048 ft 424 kts 251°
2026-05-08 15:59 20.88484 104.86538 36043 ft 423 kts 251°
2026-05-08 15:59 20.86449 104.80626 36044 ft 424 kts 251°
2026-05-08 16:00 20.84413 104.74721 36046 ft 423 kts 250°
2026-05-08 16:00 20.81338 104.69346 36044 ft 430 kts 229°
2026-05-08 16:01 20.76674 104.65287 36046 ft 435 kts 219°
2026-05-08 16:01 20.71763 104.61500 36046 ft 435 kts 219°
2026-05-08 16:02 20.66859 104.57714 36046 ft 435 kts 219°
2026-05-08 16:02 20.61951 104.53927 36049 ft 435 kts 219°
2026-05-08 16:03 20.57071 104.50169 36045 ft 436 kts 219°
2026-05-08 16:03 20.52156 104.46396 36043 ft 436 kts 219°
2026-05-08 16:04 20.47216 104.42600 36051 ft 439 kts 219°
2026-05-08 16:04 20.42267 104.38787 36052 ft 439 kts 219°
2026-05-08 16:05 20.37344 104.34932 36061 ft 439 kts 219°
2026-05-08 16:05 20.32438 104.31055 36063 ft 439 kts 219°
2026-05-08 16:06 20.27526 104.27187 36068 ft 439 kts 219°
2026-05-08 16:06 20.22607 104.23339 36066 ft 439 kts 219°
2026-05-08 16:07 20.17682 104.19499 36067 ft 438 kts 219°
2026-05-08 16:07 20.12766 104.15657 36073 ft 438 kts 219°
2026-05-08 16:08 20.08687 104.12460 36075 ft 438 kts 219°
2026-05-08 16:08 20.03777 104.08614 36075 ft 438 kts 219°
2026-05-08 16:09 19.98859 104.04784 36075 ft 438 kts 219°
2026-05-08 16:09 19.93928 104.00962 36070 ft 438 kts 219°
2026-05-08 16:10 19.89003 103.97137 36064 ft 439 kts 219°
2026-05-08 16:10 19.84079 103.93300 36064 ft 439 kts 219°
2026-05-08 16:11 19.79152 103.89454 36058 ft 439 kts 219°
2026-05-08 16:11 19.74220 103.85617 36055 ft 440 kts 219°
2026-05-08 16:12 19.69289 103.81773 36056 ft 440 kts 219°
2026-05-08 16:12 19.64355 103.77934 36058 ft 440 kts 218°
2026-05-08 16:13 19.59418 103.74104 36058 ft 440 kts 218°
2026-05-08 16:13 19.54466 103.70271 36060 ft 441 kts 218°
2026-05-08 16:14 19.49510 103.66429 36058 ft 441 kts 218°
2026-05-08 16:14 19.44554 103.62587 36063 ft 441 kts 218°
2026-05-08 16:15 19.39590 103.58762 36066 ft 441 kts 218°
2026-05-08 16:15 19.34607 103.54961 36065 ft 441 kts 218°
2026-05-08 16:16 19.29618 103.51167 36064 ft 441 kts 218°
2026-05-08 16:16 19.24628 103.47367 36056 ft 443 kts 218°
2026-05-08 16:17 19.19628 103.43563 36057 ft 442 kts 218°
2026-05-08 16:17 19.14634 103.39756 36045 ft 442 kts 218°
2026-05-08 16:18 19.09643 103.35950 36048 ft 442 kts 218°
2026-05-08 16:18 19.04643 103.32150 36054 ft 442 kts 218°
2026-05-08 16:19 18.99642 103.28356 36043 ft 442 kts 218°
2026-05-08 16:19 18.94639 103.24566 36043 ft 443 kts 217°
2026-05-08 16:20 18.89636 103.20770 36031 ft 443 kts 217°
2026-05-08 16:20 18.84633 103.16974 36040 ft 443 kts 217°
2026-05-08 16:21 18.79617 103.13198 36038 ft 443 kts 217°
2026-05-08 16:21 18.74638 103.09453 36027 ft 442 kts 217°
2026-05-08 16:22 18.69635 103.05670 36027 ft 442 kts 217°
2026-05-08 16:22 18.64635 103.01885 36009 ft 442 kts 217°
2026-05-08 16:23 18.59627 102.98111 36010 ft 443 kts 217°
2026-05-08 16:23 18.54618 102.94331 36011 ft 443 kts 217°
2026-05-08 16:24 18.49612 102.90550 35991 ft 443 kts 217°
2026-05-08 16:24 18.44601 102.86771 35991 ft 443 kts 217°
2026-05-08 16:25 18.39593 102.82998 35980 ft 443 kts 217°
2026-05-08 16:25 18.34585 102.79226 35980 ft 443 kts 217°
2026-05-08 16:26 18.29569 102.75466 35977 ft 443 kts 217°
2026-05-08 16:26 18.24553 102.71700 35971 ft 443 kts 217°
2026-05-08 16:27 18.19536 102.67938 35972 ft 443 kts 217°
2026-05-08 16:27 18.14522 102.64176 35973 ft 443 kts 217°
2026-05-08 16:28 18.09504 102.60415 35975 ft 443 kts 217°
2026-05-08 16:28 18.04489 102.56656 35975 ft 443 kts 217°
2026-05-08 16:29 17.99216 102.53326 35975 ft 445 kts 203°
2026-05-08 16:29 17.93441 102.50958 35975 ft 446 kts 202°
2026-05-08 16:30 17.87664 102.48593 35974 ft 446 kts 202°
2026-05-08 16:30 17.81878 102.46243 35974 ft 446 kts 202°
2026-05-08 16:31 17.76083 102.43913 35973 ft 446 kts 202°
2026-05-08 16:31 17.70289 102.41590 35970 ft 446 kts 202°
2026-05-08 16:32 17.64498 102.39257 35970 ft 446 kts 202°
2026-05-08 16:32 17.58711 102.36926 35964 ft 446 kts 202°
2026-05-08 16:33 17.52917 102.34604 35967 ft 446 kts 202°
2026-05-08 16:33 17.47128 102.32283 35969 ft 445 kts 202°
2026-05-08 16:34 17.41381 102.29975 35967 ft 445 kts 202°
2026-05-08 16:34 17.35594 102.27649 35964 ft 445 kts 202°
2026-05-08 16:35 17.29823 102.25335 35964 ft 444 kts 202°
2026-05-08 16:35 17.24055 102.23024 35964 ft 444 kts 202°
2026-05-08 16:36 17.18276 102.20739 35961 ft 444 kts 202°
2026-05-08 16:36 17.12501 102.18448 35967 ft 444 kts 202°
2026-05-08 16:37 17.06742 102.16126 35967 ft 444 kts 202°
2026-05-08 16:37 17.00982 102.13804 35967 ft 443 kts 202°
2026-05-08 16:38 16.95237 102.11507 35967 ft 442 kts 202°
2026-05-08 16:38 16.89498 102.09217 35967 ft 441 kts 202°
2026-05-08 16:39 16.83760 102.06933 35967 ft 442 kts 202°
2026-05-08 16:39 16.78018 102.04649 35970 ft 442 kts 202°
2026-05-08 16:40 16.72282 102.02361 35980 ft 441 kts 201°
2026-05-08 16:40 16.66548 102.00072 35980 ft 442 kts 203°
2026-05-08 16:41 16.61321 101.96748 35983 ft 442 kts 222°
2026-05-08 16:42 16.54612 101.90132 35982 ft 443 kts 223°
2026-05-08 16:42 16.50126 101.85733 35997 ft 444 kts 223°
2026-05-08 16:43 16.45626 101.81343 35997 ft 443 kts 223°
2026-05-08 16:43 16.41139 101.76948 35992 ft 443 kts 223°
2026-05-08 16:44 16.36652 101.72555 35988 ft 443 kts 223°
2026-05-08 16:44 16.32154 101.68157 35994 ft 449 kts 223°
2026-05-08 16:45 16.27570 101.63688 35991 ft 448 kts 223°
2026-05-08 16:45 16.23055 101.59278 35983 ft 448 kts 223°
2026-05-08 16:46 16.18514 101.54844 35988 ft 448 kts 223°
2026-05-08 16:46 16.13963 101.50415 35975 ft 448 kts 223°
2026-05-08 16:47 16.09407 101.45996 35976 ft 448 kts 223°
2026-05-08 16:47 16.04859 101.41573 35969 ft 448 kts 223°
2026-05-08 16:48 16.00295 101.37136 35961 ft 451 kts 223°
2026-05-08 16:48 15.95708 101.32675 35961 ft 452 kts 223°
2026-05-08 16:49 15.91124 101.28216 35955 ft 450 kts 223°
2026-05-08 16:49 15.86561 101.23785 35953 ft 449 kts 223°
2026-05-08 16:50 15.81996 101.19361 35952 ft 448 kts 223°
2026-05-08 16:50 15.79721 101.17154 35563 ft 447 kts 223°
2026-05-08 16:50 15.77452 101.14952 35012 ft 445 kts 223°
2026-05-08 16:50 15.75194 101.12764 34471 ft 444 kts 222°
2026-05-08 16:51 15.72938 101.10581 33919 ft 443 kts 222°
2026-05-08 16:51 15.70692 101.08406 33336 ft 441 kts 223°
2026-05-08 16:51 15.68454 101.06240 32810 ft 438 kts 223°
2026-05-08 16:51 15.66229 101.04086 32280 ft 436 kts 222°
2026-05-08 16:52 15.64014 101.01944 31738 ft 434 kts 222°
2026-05-08 16:52 15.61811 100.99813 31206 ft 432 kts 222°
2026-05-08 16:52 15.59613 100.97690 30701 ft 430 kts 222°
2026-05-08 16:52 15.57459 100.95606 30191 ft 429 kts 222°
2026-05-08 16:53 15.53124 100.91414 29137 ft 422 kts 222°
2026-05-08 16:53 15.51684 100.90023 28804 ft 419 kts 222°
2026-05-08 16:53 15.48870 100.87311 28187 ft 413 kts 222°
2026-05-08 16:54 15.46776 100.85291 27720 ft 409 kts 222°
2026-05-08 16:54 15.45373 100.83937 27403 ft 406 kts 222°
2026-05-08 16:54 15.42652 100.81305 26813 ft 402 kts 222°
2026-05-08 16:54 15.40616 100.79341 26347 ft 398 kts 222°
2026-05-08 16:55 15.39251 100.78026 26049 ft 396 kts 222°
2026-05-08 16:55 15.37237 100.76089 25591 ft 393 kts 222°
2026-05-08 16:55 15.34594 100.73541 24972 ft 390 kts 222°
2026-05-08 16:55 15.32612 100.71629 24483 ft 389 kts 222°
2026-05-08 16:56 15.31276 100.70341 24158 ft 388 kts 222°
2026-05-08 16:56 15.29280 100.68470 23673 ft 386 kts 217°
2026-05-08 16:56 15.27058 100.66990 23132 ft 384 kts 205°
2026-05-08 16:56 15.24571 100.66021 22639 ft 380 kts 194°
2026-05-08 16:57 15.22024 100.65342 22155 ft 377 kts 194°
2026-05-08 16:57 15.19488 100.64670 21679 ft 375 kts 194°
2026-05-08 16:57 15.16971 100.64005 21211 ft 372 kts 194°
2026-05-08 16:57 15.14466 100.63342 20746 ft 370 kts 194°
2026-05-08 16:58 15.11976 100.62684 20283 ft 368 kts 194°
2026-05-08 16:58 15.09500 100.62031 19820 ft 367 kts 194°
2026-05-08 16:58 15.07031 100.61381 19360 ft 365 kts 194°
2026-05-08 16:58 15.04588 100.60736 18985 ft 361 kts 194°
2026-05-08 16:59 15.02159 100.60094 18538 ft 356 kts 194°
2026-05-08 16:59 14.99792 100.59469 18004 ft 346 kts 193°
2026-05-08 16:59 14.97500 100.58867 17550 ft 334 kts 193°
2026-05-08 16:59 14.95285 100.58284 17151 ft 322 kts 193°
2026-05-08 17:00 14.93145 100.57725 16761 ft 312 kts 193°
2026-05-08 17:00 14.91070 100.57182 16392 ft 303 kts 193°
2026-05-08 17:00 14.89050 100.56651 16030 ft 298 kts 193°
2026-05-08 17:00 14.87041 100.56123 15674 ft 299 kts 193°
2026-05-08 17:01 14.85018 100.55609 15238 ft 302 kts 188°
2026-05-08 17:01 14.82905 100.55560 14743 ft 306 kts 176°
2026-05-08 17:01 14.80772 100.55670 14360 ft 308 kts 176°
2026-05-08 17:01 14.78629 100.55778 13987 ft 309 kts 175°
2026-05-08 17:02 14.76476 100.55886 13596 ft 310 kts 175°
2026-05-08 17:02 14.74318 100.55994 13195 ft 311 kts 175°
2026-05-08 17:02 14.72161 100.56102 12816 ft 310 kts 175°
2026-05-08 17:02 14.70009 100.56211 12470 ft 308 kts 175°
2026-05-08 17:03 14.67871 100.56318 12104 ft 307 kts 175°
2026-05-08 17:03 14.65736 100.56428 11723 ft 307 kts 175°
2026-05-08 17:03 14.63603 100.56540 11334 ft 307 kts 175°
2026-05-08 17:03 14.61483 100.56651 11076 ft 302 kts 175°
2026-05-08 17:04 14.59399 100.56759 10761 ft 299 kts 175°
2026-05-08 17:04 14.57319 100.56866 10398 ft 299 kts 175°
2026-05-08 17:04 14.55245 100.56973 10052 ft 298 kts 175°
2026-05-08 17:04 14.53184 100.57079 9702 ft 296 kts 175°
2026-05-08 17:05 14.51138 100.57269 9312 ft 294 kts 167°
2026-05-08 17:05 14.49174 100.57802 8977 ft 290 kts 163°
2026-05-08 17:05 14.47271 100.58347 8850 ft 279 kts 163°
2026-05-08 17:05 14.45438 100.58870 8731 ft 268 kts 163°
2026-05-08 17:06 14.43672 100.59373 8584 ft 259 kts 163°
2026-05-08 17:06 14.41952 100.59863 8332 ft 255 kts 163°
2026-05-08 17:06 14.40245 100.60351 8019 ft 254 kts 163°
2026-05-08 17:06 14.38546 100.60839 7701 ft 253 kts 163°
2026-05-08 17:07 14.36849 100.61322 7391 ft 252 kts 163°
2026-05-08 17:07 14.35161 100.61804 7090 ft 251 kts 163°
2026-05-08 17:07 14.33483 100.62283 6811 ft 249 kts 163°
2026-05-08 17:07 14.31822 100.62756 6586 ft 246 kts 163°
2026-05-08 17:08 14.30176 100.63222 6380 ft 245 kts 163°
2026-05-08 17:08 14.28537 100.63689 6170 ft 244 kts 163°
2026-05-08 17:08 14.26907 100.64156 5964 ft 243 kts 163°
2026-05-08 17:08 14.25276 100.64622 5760 ft 243 kts 163°
2026-05-08 17:09 14.23650 100.65086 5564 ft 242 kts 163°
2026-05-08 17:09 14.22027 100.65548 5364 ft 242 kts 163°
2026-05-08 17:09 14.20408 100.66011 5165 ft 241 kts 164°
2026-05-08 17:09 14.18792 100.66473 4968 ft 241 kts 164°
2026-05-08 17:10 14.17161 100.66939 4513 ft 247 kts 164°
2026-05-08 17:10 14.15526 100.67405 4124 ft 242 kts 164°
2026-05-08 17:10 14.13932 100.67857 3742 ft 236 kts 164°
2026-05-08 17:10 14.12343 100.68309 3306 ft 234 kts 164°
2026-05-08 17:11 14.10833 100.68737 3192 ft 217 kts 164°
2026-05-08 17:11 14.09412 100.69139 3070 ft 208 kts 164°
2026-05-08 17:11 14.08033 100.69432 2974 ft 197 kts 178°
2026-05-08 17:11 14.06716 100.69200 2749 ft 191 kts 201°
2026-05-08 17:12 14.05505 100.68650 2467 ft 190 kts 200°
2026-05-08 17:12 14.04292 100.68124 2190 ft 189 kts 204°
2026-05-08 17:12 14.03152 100.67538 2037 ft 181 kts 206°
2026-05-08 17:12 14.02081 100.66951 1864 ft 169 kts 207°
2026-05-08 17:13 14.01064 100.66385 1664 ft 165 kts 207°
2026-05-08 17:13 14.00052 100.65819 1603 ft 167 kts 207°
2026-05-08 17:13 13.99035 100.65248 1445 ft 167 kts 207°
2026-05-08 17:13 13.98025 100.64681 1250 ft 159 kts 207°
2026-05-08 17:14 13.97085 100.64153 1063 ft 150 kts 207°
2026-05-08 17:14 13.96179 100.63645 879 ft 147 kts 208°
2026-05-08 17:14 13.95287 100.63144 688 ft 145 kts 209°
2026-05-08 17:14 13.94402 100.62646 490 ft 144 kts 209°
2026-05-08 17:15 13.93525 100.62153 296 ft 144 kts 210°
2026-05-08 17:15 13.92649 100.61662 102 ft 143 kts 210°
2026-05-08 17:15 13.91820 100.61187 18 ft 120 kts 207°
2026-05-08 17:15 13.91232 100.60868 19 ft 71 kts 209°
2026-05-08 17:16 13.90905 100.60684 20 ft 47 kts 207°
2026-05-08 17:16 13.90627 100.60531 20 ft 44 kts 208°
2026-05-08 17:16 13.90365 100.60382 19 ft 42 kts 208°
2026-05-08 17:16 13.90166 100.60269 17 ft 17 kts 216°
2026-05-08 17:17 13.90155 100.60158 17 ft 18 kts 301°
2026-05-08 17:17 13.90219 100.60041 19 ft 20 kts 298°
2026-05-08 17:17 13.90288 100.59910 19 ft 22 kts 298°
2026-05-08 17:17 13.90365 100.59766 17 ft 24 kts 298°
2026-05-08 17:18 13.90444 100.59656 17 ft 17 kts 350°
2026-05-08 17:18 13.90559 100.59708 17 ft 19 kts 28°
2026-05-08 17:18 13.90684 100.59779 17 ft 21 kts 28°
2026-05-08 17:18 13.90821 100.59856 17 ft 23 kts 28°
2026-05-08 17:19 13.90926 100.59982 17 ft 24 kts 45°
2026-05-08 17:19 13.91068 100.60086 17 ft 26 kts 32°
2026-05-08 17:19 13.91226 100.60176 17 ft 26 kts 26°
2026-05-08 17:19 13.91385 100.60266 17 ft 27 kts 28°
2026-05-08 17:20 13.91545 100.60355 17 ft 20 kts 29°
2026-05-08 17:20 13.91672 100.60428 17 ft 22 kts 27°
2026-05-08 17:20 13.91807 100.60503 19 ft 23 kts 28°
2026-05-08 17:20 13.91877 100.60525 19 ft 8 kts 338°
2026-05-08 17:21 13.91908 100.60477 17 ft 9 kts 298°
2026-05-08 17:21 13.91933 100.60419 17 ft 7 kts 264°
2026-05-08 17:21 13.91900 100.60391 17 ft 6 kts 208°
2026-05-08 17:21 13.91881 100.60381 17 ft 2 kts 208°
2026-05-08 17:22 13.91879 100.60379 17 ft 0 kts 208°